Weather in Tat-Kitnya

Russia / Mari El Republic     56°48′09″N   49°42′37″E
temp.,
°C
wind,
m/s
gust,
m/s
humid.,
%
clouds,
%
prec.,
mm/h
press.,
hPa
HPBL,
m
28 february, sun
sun2800:00−18n499878 0.0 1006154
03:00−20n499975 0.0 1007154
06:00−20n489997 0.1 1008189
09:00−18n479590 0.1 1009248
12:00−15n479275 0.0 1010345
15:00−14n589083 0.0 1012484
18:00−18n469660 0.0 1014106
21:00−20n349830 0.0 101656
1 march, mon
mon100:00−21n34984 0.0 101750
03:00−23nnw349711 0.0 101938
06:00−24nnw23960 0.0 102022
09:00−20nnw22930 0.0 1021111
12:00−15wnw238721 0.0 1020248
15:00−12wsw248717 0.0 1019312
18:00−14ssw349664 0.0 101787
21:00−13ssw599682 0.0 1015243
2 march, tue
tue200:00−11ssw61394100 0.1 1010354
03:00−8ssw71394100 1.0 1006531
06:00−5sw71394100 0.8 1001526
09:00−1sw61097100 1.8 999516
12:000w5998100 0.9 997631
15:000w599398 1.3 996686
18:00−1wnw6119799 0.6 997506
21:00−4wnw479797 0.9 998165
3 march, wed
wed300:00−3wnw499695 0.3 999335
03:00−5wnw599595 0.3 1000322
06:00−8wnw4109596 0.1 1001280
09:00−7nw599498 0.2 1003428
12:00−6nw6991100 0.0 1004529
15:00−5wnw599093 0.1 1004531
18:00−8wnw379394 0.0 1005141
21:00−10wnw489488 0.1 1006144
4 march, thu
thu400:00−7w4119494 0.1 1005433
03:00−8wsw4109497 0.2 1004332
06:00−11sw489687 0.0 1003181
09:00−8sw599492 0.1 1001345
12:00−5ssw71292100 0.1 997638
15:00−3ssw81494100 0.7 992910
18:00−2sw81592100 1.1 9891039
21:00−2w81478100 1.9 9891095